Location: Unspecified
(0.0000°N, 0.0000°E)
Time: 17:29:58
(UTC+00:00)

S-56A Canister/Altair - Pass Details

Date: 21 March 2026
Orbit: 632 x 2485 km, 38.9° (Epoch: 11 April)

Event Time Altitude Azimuth Distance (km) Brightness Sun altitude
Rises 05:39:59 0° 197° (SSW) 5,352 11.7 -6.8°
Reaches altitude 10° 05:48:12 10° 164° (SSE) 4,807 11.8 -4.8°
Maximum altitude 05:51:26 11° 150° (SSE) 4,848 12.0 -4.0°
Drops below altitude 10° 05:54:48 10° 136° (SE) 5,037 12.4 -3.1°
Sets 06:04:14 0° 106° (ESE) 6,154 14.0 -0.8°
